Showing default

OPS 8480 (TRANSIT 5B-6), 1420

Orbit data source: Space-Track

OPS 8480 (TRANSIT 5B-6), 1420 is a payload satellite owned by USN BuWeps (US) in LEO that was launched on Thu, 24 Jun 1965 UTC via a THOR ABLESTAR launch vehicle from the Air Force Western Test Range (AFWTR). Payload-class satellites include a variety of spacecraft equipped with specific instruments for various scientific and technological missions. These include communications satellites like Starlink; space stations such as the ISS; scientific satellites like the Hubble; Earth observation satellites from companies like Planet Labs, Umbra, and HawkEye 360; GPS; miniature CubeSats for education and research; and military/defense satellites.

Loading next visibility...
Identifier
1420, 1965-048A
Orbit
LEO
Country
Flag of USUS
Related business
Manufacturer
APL
Mission
Spacecraft
Bus & Motor
TRANSIT 5, Unknown motor
Mass
~54 kg wet, ~54 kg dry
Launch date (UTC)
Icon of a cake. It is the launch day of the satellite!1965-06-24 (61 years ago)
Launch vehicle
THOR ABLESTAR
Launch site
Air Force Western Test Range (AFWTR)
Object type
Payload
Rocket body
Debris
Shape & HBR
Unknown
Radar Cross Section
Large (>1 m²)

Expand to show TLE details & history
Last TLE update: 17 hours ago

TLE from 17 hours ago
0 OPS 8480 (TRANSIT 5B-6)
1 01420U 65048A   26174.56853623  .00000074  00000-0  95635-4 0  9991
2 01420  89.8792 286.1115 0074841  53.7783 317.7483 13.51908064  4322
Epoch: 2026-06-23T13:38Z
TLE epoch observation values (Epoch: 2026-06-23T13:38:41.530Z)
Latitude
10.89591°
Longitude
169.72336°
Altitude
1,026.399 km
Speed
7.36 km/s
True Right ascension
19h 04m 32s
True Declination
10° 50' 04"
Sunlit
Object was in full shadow at epoch
Visualization orbit readout
Latitude
Unknown
Longitude
Unknown
Altitude
Unknown
Speed
Unknown
Apparent Right ascension
Unknown
Apparent Declination
Unknown
Sunlit
N/A
Visualization observer readout
Local Sidereal Time
17:55:04
Azimuth
Unknown
Elevation
Unknown
Doppler factor
Unknown
Orbital elements
Apogee altitude
1,117.978 km
Perigee altitude
1,006.608 km
Semi-major axis
7,440.43 km
Eccentricity
0.00748
Inclination
89.8792°
RAAN
286.1115°
Arg. of periapsis
53.7783°
True anomaly
317.16764°
Mean anomaly
317.7483°
Eccentric anomaly
317.45837°
Mean motion
3.38179 °/min
Orbital period
106.45 mins
BSTAR
0.000095635
Loading maneuver chart data...
Computing Atmospheric mass density...

Documentation

Showing up to 5 results
|